Regional Weather Roundup
Issued by NWS

Home | Current Version | Previous Version | Text Only | Print | Product List | Glossary Off
Versions: 1 2 3 4 5 6 7 8 9 10 11 12 13 14 15 16 17 18 19 20 21 22 23 24 25 26 27 28 29 30 31 32 33 34 35 36 37 38 39 40 41 42 43 44 45 46 47 48 49 50

069
ASUS43 KDTX 211210
RWRMI
MICHIGAN HOURLY REGIONAL WEATHER ROUNDUP
NATIONAL WEATHER SERVICE DETROIT/PONTIAC MI
700 AM EST SAT JAN 21 2017

NOTE: "FAIR" INDICATES FEW OR NO CLOUDS BELOW 12,000 FEET WITH NO
SIGNIFICANT WEATHER AND/OR OBSTRUCTION TO VISIBILITY.

MIZ047>049-052>055-059>063-066>070-074>076-081>083-211300-
SOUTHEAST LOWER MICHIGAN

CITY           SKY/WX    TMP DP  RH WIND       PRES   REMARKS
ADRIAN         FOG       41  41 100 E3        29.69S VSB 3/4
6HR MIN TEMP:  38; 6HR MAX TEMP:  42;

ALMA           CLOUDY    36  36  99 NE3       29.67S FOG
6HR MIN TEMP:  34; 6HR MAX TEMP:  36;

ANN ARBOR      FOG       41  41 100 NE3       29.69S VSB 1/4
BAD AXE        CLOUDY    35  35 100 SE3       29.71S FOG
6HR MIN TEMP:  33; 6HR MAX TEMP:  35;

CARO           CLOUDY    38  38 100 E5        29.69S FOG     WCI  34
DETROIT CITY   FOG       39  39 100 CALM      29.72R VSB 1/2
6HR MIN TEMP:  38; 6HR MAX TEMP:  40;

DETROIT        CLOUDY    42  42 100 CALM      29.72R FOG
6HR MIN TEMP:  40; 6HR MAX TEMP:  42; 6HR PCP: TRACE;

FLINT          CLOUDY    39  39 100 E3        29.69R FOG
6HR MIN TEMP:  37; 6HR MAX TEMP:  39;

GROSSE ILE     CLOUDY    42  42  99 SE6       29.70R FOG
6HR MIN TEMP:  36; 6HR MAX TEMP:  43;

HILLSDALE      CLOUDY    45  43  93 SE6       29.66S FOG
HOWELL         CLOUDY    43  42  96 SE6       29.67R FOG

CITY           SKY/WX    TMP DP  RH WIND       PRES   REMARKS
JACKSON        MOCLDY    45  43  93 SE7       29.66S FOG
6HR MIN TEMP:  42; 6HR MAX TEMP:  46;

LAMBERTVILLE   MOCLDY    48  46  93 S5        29.69S FOG
6HR MIN TEMP:  46; 6HR MAX TEMP:  49;

LANSING        MOCLDY    44  42  93 SE9       29.65S FOG
6HR MIN TEMP:  38; 6HR MAX TEMP:  44;

LAPEER         FOG       38  38 100 SE12      29.70S VSB 1/2 WCI  30
6HR MIN TEMP:  35; 6HR MAX TEMP:  38;

MASON          CLOUDY    45  45 100 SE6       29.66R FOG
MONROE         FOG       38  38 100 S5        29.70R VSB 1/2 WCI  35
6HR MIN TEMP:  38; 6HR MAX TEMP:  44;

MT. CLEMENS    FOG       37  37 100 E3        29.70S VSB 1/8
6HR MIN TEMP:  37; 6HR MAX TEMP:  38;

PONTIAC        FOG       40  38  93 E3        29.69S VSB 1/4
6HR MIN TEMP:  38; 6HR MAX TEMP:  40;

PORT HOPE        N/A     36  36 100 S8        29.71S WCI  30
6HR MIN TEMP:  34; 6HR MAX TEMP:  36;

PORT HURON     FOG       37  37 100 E3        29.73S VSB 1/4
TRI CITIES     FOG       36  36 100 E7        29.69R VSB 3/4 WCI  30
6HR MIN TEMP:  34; 6HR MAX TEMP:  36;

MIDLAND        FOG       35  34  97 CALM      29.67S VSB 1
6HR MIN TEMP:  34; 6HR MAX TEMP:  35;

TROY           FOG       39  38  95 E5        29.73S VSB 1/2
SAGINAW HB     CLOUDY    37  36  93 E5        29.68S FOG     WCI  34
$$
MIZ043>046-050>051-056>058-064>065-071>073-077>080-211300-
SOUTHWEST LOWER MICHIGAN

CITY           SKY/WX    TMP DP  RH WIND       PRES   REMARKS
BATTLE CREEK   CLEAR     46  45  96 S7        29.64R FOG
6HR MIN TEMP:  44; 6HR MAX TEMP:  48;

BENTON HARBOR  MOCLDY    48  46  93 SE8       29.59S FOG
6HR MIN TEMP:  47; 6HR MAX TEMP:  50;

BIG RAPIDS     CLOUDY    34  33  96 E3        29.63S FOG
6HR MIN TEMP:  32; 6HR MAX TEMP:  34;

COLDWATER      CLOUDY    47  47 100 SE8       29.65R FOG
6HR MIN TEMP:  45; 6HR MAX TEMP:  47;

FREMONT        CLOUDY    37  37 100 E7        29.61R FOG     WCI  31
HOLLAND        MOCLDY    45  44  97 SE7       29.60S
6HR MIN TEMP:  40; 6HR MAX TEMP:  45; 6HR PCP:  0.02;

GRAND RAPIDS   FOG       40  38  93 E7        29.62S VSB 3/4
6HR MIN TEMP:  37; 6HR MAX TEMP:  40; 6HR PCP: TRACE;

IONIA          FOG       36  36 100 E3        29.64R VSB 1/4
6HR MIN TEMP:  35; 6HR MAX TEMP:  37;

KALAMAZOO      PTCLDY    47  44  90 S6        29.64S
6HR MIN TEMP:  45; 6HR MAX TEMP:  48; 6HR PCP: TRACE;

LUDINGTON      CLOUDY    36  36 100 E8        29.59F FOG     WCI  30
6HR MIN TEMP:  34; 6HR MAX TEMP:  36;

MARSHALL       MOCLDY    47  47  98 SE7       29.64S FOG
6HR MIN TEMP:  44; 6HR MAX TEMP:  48;

MOUNT PLEASANT FOG       34  34  99 CALM      29.66S VSB 3/4
6HR MIN TEMP:  33; 6HR MAX TEMP:  34; 6HR PCP:  0.01;

MUSKEGON       CLOUDY    41  40  96 E7        29.61S FOG
6HR MIN TEMP:  37; 6HR MAX TEMP:  41; 6HR PCP:  0.02;

SOUTH HAVEN    MOCLDY    48  48  97 SE5       29.59F FOG
$$
MIZ016>042-211300-
NORTHERN LOWER MICHIGAN

CITY           SKY/WX    TMP DP  RH WIND       PRES   REMARKS
ALPENA         FOG       32  31  96 SE5       29.70F VSB 1/2 WCI  27
6HR MIN TEMP:  32; 6HR MAX TEMP:  33;

BEAVER ISLAND  CLOUDY    34  34 100 E6        29.64F FOG     WCI  29
6HR MIN TEMP:  34; 6HR MAX TEMP:  35;

BELLAIRE       CLOUDY    34  34  99 CALM      29.65R
6HR MIN TEMP:  32; 6HR MAX TEMP:  35;

CADILLAC       DRIZZLE   34  33  96 E5        29.62S WCI  30
CHARLEVOIX     CLOUDY    34  34 100 SE6       29.66F WCI  29
6HR MIN TEMP:  34; 6HR MAX TEMP:  35;

FRANKFORT      LGT RAIN  37  36  96 SE5       29.61F WCI  33
GAYLORD        CLOUDY    34  30  85 S9        29.65R FOG     WCI  27
6HR MIN TEMP:  34; 6HR MAX TEMP:  35;

GRAYLING       CLOUDY    33  33  99 E5        29.66S FOG     WCI  29
6HR MIN TEMP:  33; 6HR MAX TEMP:  33;

HARBOR SPRINGS CLOUDY    33  33  99 E8        29.65F FOG     WCI  26
HOUGHTON LAKE  CLOUDY    33  32  96 E6        29.66S WCI  28
6HR MIN TEMP:  32; 6HR MAX TEMP:  33;

MANISTEE       LGT RAIN  36  35  96 E8        29.61S FOG     WCI  30
OSCODA         FOG       34  33  96 S3        29.71S VSB 1/2
6HR MIN TEMP:  33; 6HR MAX TEMP:  35;

PELLSTON       CLOUDY    33  31  92 E3        29.66F FOG
6HR MIN TEMP:  33; 6HR MAX TEMP:  33;

ROGERS CITY    MOCLDY    32  32  99 SE6       29.69F FOG     WCI  27
TRAVERSE CITY  CLOUDY    37  33  85 CALM      29.63R
6HR MIN TEMP:  35; 6HR MAX TEMP:  37;

$$
MIZ007>008-015-211300-
EASTERN UPPER MICHIGAN

CITY           SKY/WX    TMP DP  RH WIND       PRES   REMARKS
KINROSS        CLOUDY   N/A N/A N/A E7        29.68S FOG
MACKINAC ISLAN CLOUDY    32  32 100 E3        29.67F FOG
6HR MIN TEMP:  32; 6HR MAX TEMP:  32;

NEWBERRY       FOG       32  32  99 SE5       29.65S VSB 1/4 WCI  27
6HR MIN TEMP:  32; 6HR MAX TEMP:  32;

S. S. MARIE    CLOUDY    33  32  96 E6        29.69R WCI  28
6HR MIN TEMP:  33; 6HR MAX TEMP:  34; 6HR PCP:  0.01;

MUNISING         N/A     34  33  96 S3        29.62F
6HR MIN TEMP:  33; 6HR MAX TEMP:  34;

$$
MIZ004>006-011>014-085-211300-
CENTRAL UPPER MICHIGAN

CITY           SKY/WX    TMP DP  RH WIND       PRES   REMARKS
MANISTIQUE     FOG       34  33  97 E5        29.63F VSB 1/2 WCI  29
6HR MIN TEMP:  32; 6HR MAX TEMP:  34;

ESCANABA       FOG       33  50 100 N5        29.62F VSB 1/2 WCI  29
6HR MIN TEMP:  33; 6HR MAX TEMP:  33; 6HR PCP: TRACE;

SAWYER-GWINN   FOG       32  32 100 S6        29.60S VSB 1/2 WCI  26
$$
MIZ001>003-009>011-084-211300-
WESTERN UPPER MICHIGAN

CITY           SKY/WX    TMP DP  RH WIND       PRES   REMARKS
IRON MOUNTAIN  FOG       32  30  92 CALM      29.58S VSB 1/4
6HR MIN TEMP:  32; 6HR MAX TEMP:  33;

HOUGHTON       FOG       34  32  92 E7        29.57S VSB 1/4 WCI  28
6HR MIN TEMP:  33; 6HR MAX TEMP:  34; 6HR PCP: TRACE;

COPPER HARBOR    N/A     37  34  89 SW7       29.60S WCI  32
6HR MIN TEMP:  33; 6HR MAX TEMP:  37; 6HR PCP:  0.01;

IRONWOOD       CLOUDY    35  33  92 E5        29.54S WCI  31
6HR MIN TEMP:  34; 6HR MAX TEMP:  35; 6HR PCP: TRACE;

$$

ABBREVIATIONS USED IN REMARKS
   TC - TEMPERATURE IN CELSIUS
  WCI - WIND CHILL INDEX
   HX - HEAT INDEX
  VSB - VISIBILITY





USA.gov is the U.S. government's official web portal to all federal, state and local government web resources and services.